Regional Weather Roundup
Issued by NWS

Home | Current Version | Previous Version | Text Only | Print | Product List | Glossary Off
Versions: 1 2 3 4 5 6 7 8 9 10 11 12 13 14 15 16 17 18 19 20 21 22 23 24 25 26 27 28 29 30 31 32 33 34 35 36 37 38 39 40 41 42 43 44 45 46 47 48 49 50

000
ASUS45 KCYS 032310
RWRWY

WYOMING REGIONAL WEATHER ROUNDUP
NATIONAL WEATHER SERVICE CHEYENNE WY
400 PM MST SAT DEC 03 2016

NOTE:  "FAIR" INDICATES FEW OR NO CLOUDS BELOW 12,000 FEET
WITH NO SIGNIFICANT WEATHER AND/OR OBSTRUCTIONS TO VISIBILITY.

WYZ001-040000-
YELLOWSTONE NATIONAL PARK

CITY           SKY/WX    TMP DP  RH WIND       PRES   REMARKS
LK YELLOWSTONE   N/A     17  13  84 VRB7      30.05S WCI   8
W YELLOWSTONE  NOT AVBL

$$
WYZ002>013-054>058-071-098>099-040000-
NORTHERN WYOMING

CITY           SKY/WX    TMP DP  RH WIND       PRES   REMARKS
JACKSON        CLOUDY    25  19  80 SW16      30.10R WCI  12
CODY           FAIR      35   9  33 W15G30    29.96R WCI  25
GREYBULL       CLOUDY    38  15  39 S7        29.97R WCI  33
WORLAND        FAIR      37  17  44 SE6       29.97R WCI  32
SHERIDAN       CLOUDY    42  15  33 W15       29.91R
BUFFALO        CLOUDY    38  14  37 SW6       29.92R WCI  33
GILLETTE       CLOUDY    37  23  56 W8        29.90R WCI  31
HULETT         CLOUDY    36  27  69 W8        29.90R WCI  29
NEWCASTLE      FAIR      32  23  69 N6        29.93S WCI  26

$$
WYZ014>020-022>026-101>103-040000-
CENTRAL WYOMING

CITY           SKY/WX    TMP DP  RH WIND       PRES   REMARKS
BIG PINEY      FAIR      28  12  51 N15       30.08R WCI  16
PINEDALE       FAIR      23  14  68 NW9G23    30.09R WCI  13
DUBOIS         MOCLDY    27  10  50 NW14      30.00S WCI  15
LANDER         FAIR      32  13  45 SW6       29.98R WCI  26
RIVERTON       FAIR      36   8  31 NW26G36   29.97R WCI  24
CASPER         CLOUDY    35  13  40 SW3       29.97R
DOUGLAS        CLOUDY    37  14  38 W15G26    29.96R WCI  28

$$
WYZ021-027>030-104>119-040000-
SOUTHERN WYOMING

CITY           SKY/WX    TMP DP  RH WIND       PRES   REMARKS
EVANSTON       CLOUDY    24  13  62 W18       30.15S WCI  10
FORT BRIDGER   FLURRIES  26  17  69 W25G32    30.15F WCI  11
ROCK SPRINGS   FAIR      25  16  68 W21G32    30.08S WCI  11
DIXON          CLOUDY    27  16  63 S6        30.12S WCI  20
RAWLINS        FLURRIES  24  15  68 SW17G29   30.02R WCI  11
SARATOGA       CLOUDY    25  14  63 SW15      30.05R WCI  12
LARAMIE        MOCLDY    25   7  46 W14G23    29.96R WCI  13
CHEYENNE       FAIR      32  11  41 NW15G26   29.95R WCI  22
TORRINGTON     MOCLDY    39  11  31 W20G30    29.95R WCI  29
PINE BLUFFS    MOCLDY    34  14  44 NW15G23   29.97R WCI  24

$$



USA.gov is the U.S. government's official web portal to all federal, state and local government web resources and services.